FW8587 Weather Reports


Display with metric or nautical units.
time (UTC)temp
F
wind
direction
speed
MPH
gust
MPH
rain 1hr
in
rain 24hr
in
rain mn
in
humidity
%
barometer
mb
20260507051205 52 5 1.0 3.0 0.00 0.00 0.00 84 1022.7
20260507050705 52 281 0.0 2.0 0.00 0.00 0.00 84 1022.7
20260507050205 52 349 0.0 3.0 0.00 0.00 0.00 84 1022.7
20260507045205 53 358 0.0 2.0 0.00 0.00 0.00 84 1022.7
20260507044704 53 317 0.0 2.0 0.00 0.00 0.00 84 1022.7
20260507044204 53 8 0.0 1.0 0.00 0.00 0.00 85 1022.7
20260507043704 53 74 0.0 2.0 0.00 0.00 0.00 84 1022.8
20260507043204 53 323 0.0 3.0 0.00 0.00 0.00 84 1022.7
20260507042205 53 325 0.0 1.0 0.00 0.00 0.00 84 1022.7
20260507041705 53 297 1.0 2.0 0.00 0.00 0.00 84 1022.7
20260507041204 53 355 1.0 3.0 0.00 0.00 0.00 84 1022.6
20260507040704 53 330 0.0 3.0 0.00 0.00 0.00 84 1022.6
20260507040204 53 5 0.0 1.0 0.00 0.00 0.00 84 1022.5
20260507035705 53 351 0.0 2.0 0.00 0.00 0.00 84 1022.5
20260507035204 54 0 1.0 3.0 0.00 0.00 0.00 84 1022.5
20260507034705 54 9 0.0 1.0 0.00 0.00 0.00 83 1022.4
20260507033705 54 327 1.0 3.0 0.00 0.00 0.00 83 1022.4
20260507033205 54 303 0.0 1.0 0.00 0.00 0.00 83 1022.3
20260507032704 54 75 0.0 2.0 0.00 0.00 0.00 83 1022.3
20260507031705 54 327 0.0 3.0 0.00 0.00 0.00 82 1022.2
20260507031205 54 288 0.0 2.0 0.00 0.00 0.00 83 1022.2
20260507030705 54 16 1.0 3.0 0.00 0.00 0.00 83 1022.2
20260507030205 54 251 1.0 3.0 0.00 0.00 0.00 83 1022.2
20260507025705 54 19 0.0 3.0 0.00 0.00 0.00 82 1022.1
20260507025204 54 305 0.0 2.0 0.00 0.00 0.00 82 1022.1
20260507024704 54 288 0.0 3.0 0.00 0.00 0.00 82 1022.1
20260507024204 54 330 0.0 2.0 0.00 0.00 0.00 84 1022.0
20260507023205 55 271 1.0 3.0 0.00 0.00 0.00 82 1021.9
20260507022704 55 268 1.0 3.0 0.00 0.00 0.00 82 1021.9
20260507022204 55 331 1.0 3.0 0.00 0.00 0.00 81 1021.8
20260507021704 55 284 2.0 7.0 0.00 0.00 0.00 81 1021.9
20260507020705 56 104 2.0 5.0 0.00 0.00 0.00 80 1021.9
20260507020204 56 163 1.0 3.0 0.00 0.00 0.00 79 1022.0
20260507015704 56 337 1.0 3.0 0.00 0.00 0.00 79 1021.9
20260507015205 56 279 1.0 3.0 0.00 0.00 0.00 79 1022.0
20260507014204 56 323 1.0 2.0 0.00 0.00 0.00 79 1021.9
20260507013705 56 347 2.0 5.0 0.00 0.00 0.00 78 1021.9
20260507013204 56 301 2.0 10.0 0.00 0.00 0.00 78 1021.9
20260507012704 57 0 1.0 8.0 0.00 0.00 0.00 77 1021.7
20260507012205 57 331 1.0 7.0 0.00 0.00 0.00 77 1021.8
20260507011704 57 319 3.0 6.0 0.00 0.00 0.00 76 1021.8
20260507011204 57 301 1.0 3.0 0.00 0.00 0.00 77 1021.7
20260507010704 57 162 2.0 3.0 0.00 0.00 0.00 77 1021.7
20260507010204 58 319 1.0 3.0 0.00 0.00 0.00 76 1021.7
20260507005704 58 330 1.0 3.0 0.00 0.00 0.00 76 1021.9
20260507005204 58 92 2.0 3.0 0.00 0.00 0.00 75 1021.8
20260507004704 58 248 0.0 3.0 0.00 0.00 0.00 75 1021.7
20260507004204 58 292 1.0 3.0 0.00 0.00 0.00 74 1021.8
20260507003704 59 276 1.0 3.0 0.00 0.00 0.00 75 1021.9
20260507003204 59 162 1.0 5.0 0.00 0.00 0.00 75 1021.9
20260507002204 59 344 3.0 10.0 0.00 0.00 0.00 74 1021.9
20260507001704 59 319 1.0 9.0 0.00 0.00 0.00 74 1021.8
20260507001204 59 317 1.0 3.0 0.00 0.00 0.00 75 1021.8
20260507000704 59 294 1.0 3.0 0.00 0.00 0.00 75 1021.8
20260506235204 59 92 1.0 3.0 0.00 0.00 0.00 76 1021.8
20260506234704 59 269 2.0 8.0 0.00 0.00 0.00 75 1021.8
20260506234204 59 311 2.0 7.0 0.00 0.00 0.00 75 1021.8
20260506233704 60 230 2.0 9.0 0.00 0.00 0.00 75 1021.8
20260506233205 60 264 1.0 5.0 0.00 0.00 0.00 75 1021.7
20260506232705 60 310 1.0 3.0 0.00 0.00 0.00 75 1021.8
20260506232205 60 179 1.0 7.0 0.00 0.00 0.00 75 1021.8
20260506231204 60 117 1.0 6.0 0.00 0.00 0.00 74 1021.8
20260506230704 61 109 2.0 6.0 0.00 0.00 0.00 73 1021.8
20260506230204 61 265 1.0 3.0 0.00 0.00 0.00 73 1021.7
20260506225704 61 270 2.0 5.0 0.00 0.00 0.00 74 1021.7
20260506225204 61 3 2.0 5.0 0.00 0.00 0.00 74 1021.8
20260506224704 60 232 2.0 8.0 0.00 0.00 0.00 74 1021.8
20260506224204 60 162 2.0 5.0 0.00 0.00 0.00 75 1021.8
20260506222704 60 279 1.0 3.0 0.00 0.00 0.00 76 1022.0
20260506221705 59 337 2.0 5.0 0.00 0.00 0.00 75 1022.1
20260506221205 59 286 1.0 3.0 0.00 0.00 0.00 76 1022.1
20260506220704 59 168 1.0 3.0 0.00 0.00 0.00 74 1022.1
20260506220203 59 242 1.0 3.0 0.00 0.00 0.00 74 1022.0
20260506215704 60 116 1.0 3.0 0.00 0.00 0.00 76 1022.0
20260506215204 59 318 1.0 3.0 0.00 0.00 0.00 76 1022.0
20260506214704 60 5 1.0 2.0 0.00 0.00 0.00 74 1022.0
20260506214204 59 203 0.0 2.0 0.00 0.00 0.00 75 1021.9
20260506213704 59 240 0.0 3.0 0.00 0.00 0.00 74 1021.9
20260506213204 60 164 0.0 2.0 0.00 0.00 0.00 75 1021.9
20260506212704 60 309 0.0 1.0 0.00 0.00 0.00 77 1021.9
20260506212203 59 313 0.0 1.0 0.00 0.00 0.00 75 1021.9
20260506211704 59 279 0.0 1.0 0.00 0.00 0.00 76 1022.0
20260506210704 59 32 0.0 3.0 0.00 0.00 0.00 74 1021.9
20260506210204 59 94 0.0 1.0 0.00 0.00 0.00 75 1022.0
20260506205704 59 99 1.0 3.0 0.00 0.00 0.00 76 1021.9
20260506205204 59 137 0.0 3.0 0.00 0.00 0.00 77 1022.0
20260506204704 58 204 0.0 1.0 0.00 0.00 0.00 76 1022.0
20260506204204 58 179 0.0 1.0 0.00 0.00 0.00 76 1022.0
20260506203704 58 269 1.0 3.0 0.00 0.00 0.00 77 1022.0
20260506203204 58 221 0.0 2.0 0.00 0.00 0.00 79 1022.0
20260506202204 58 334 1.0 3.0 0.00 0.00 0.00 78 1021.9
20260506201704 58 148 0.0 2.0 0.00 0.00 0.00 77 1021.9
20260506201204 58 126 1.0 3.0 0.00 0.00 0.00 77 1021.9
20260506200704 58 285 1.0 3.0 0.00 0.00 0.00 78 1021.8
20260506200204 58 144 1.0 2.0 0.00 0.00 0.00 78 1021.9
20260506195703 58 57 1.0 2.0 0.00 0.00 0.00 78 1021.9
20260506194704 58 290 1.0 2.0 0.00 0.00 0.00 80 1021.9
20260506194204 58 175 0.0 2.0 0.00 0.00 0.00 81 1021.9
20260506193703 58 258 1.0 2.0 0.00 0.00 0.00 80 1021.9
20260506193203 57 126 1.0 3.0 0.00 0.00 0.00 82 1021.8
20260506192204 56 281 1.0 3.0 0.00 0.00 0.00 83 1021.9
20260506191704 56 76 0.0 0.0 0.00 0.00 0.00 83 1021.9
20260506191204 55 63 1.0 2.0 0.00 0.00 0.00 83 1022.0
20260506190705 55 131 1.0 2.0 0.00 0.00 0.00 84 1022.0
20260506190206 55 80 0.0 1.0 0.00 0.00 0.00 86 1022.0
20260506185705 55 95 0.0 2.0 0.00 0.00 0.00 86 1022.0
20260506185205 55 103 1.0 3.0 0.00 0.00 0.00 85 1022.0
20260506184205 55 139 0.0 2.0 0.00 0.00 0.00 87 1021.9
20260506183706 54 110 0.0 1.0 0.00 0.00 0.00 87 1021.8
20260506183205 54 134 0.0 1.0 0.00 0.00 0.00 88 1021.8
20260506181706 54 88 0.0 1.0 0.00 0.00 0.00 89 1021.7
20260506181205 53 99 0.0 2.0 0.00 0.00 0.00 90 1021.9
20260506180706 53 310 1.0 2.0 0.00 0.00 0.00 90 1021.8
20260506180206 53 286 0.0 1.0 0.00 0.00 0.00 91 1021.7
20260506175705 53 273 0.0 1.0 0.00 0.00 0.00 92 1021.7
20260506175205 53 275 0.0 2.0 0.00 0.00 0.00 92 1021.6
20260506174705 53 290 0.0 2.0 0.00 0.00 0.00 92 1021.7
20260506174205 52 65 0.0 2.0 0.00 0.00 0.00 93 1021.7
20260506173705 52 297 1.0 3.0 0.00 0.00 0.00 93 1021.7
20260506173205 52 279 1.0 2.0 0.00 0.00 0.00 93 1021.8
20260506172706 53 268 0.0 1.0 0.00 0.00 0.00 94 1021.7
20260506171705 52 315 1.0 1.0 0.00 0.00 0.00 94 1021.6
20260506171205 52 305 1.0 3.0 0.00 0.00 0.00 94 1021.6
20260506170705 52 290 1.0 2.0 0.00 0.00 0.00 95 1021.7
20260506170205 52 279 1.0 2.0 0.00 0.00 0.00 95 1021.6
20260506165705 52 259 0.0 2.0 0.00 0.00 0.00 95 1021.6
20260506164705 52 286 0.0 1.0 0.00 0.00 0.00 95 1021.6
20260506164206 52 293 0.0 2.0 0.00 0.00 0.00 95 1021.4
20260506163705 52 293 0.0 1.0 0.00 0.00 0.00 95 1021.4
20260506163206 52 293 0.0 0.0 0.00 0.00 0.00 95 1021.4
20260506162705 52 293 0.0 1.0 0.00 0.00 0.00 95 1021.3
20260506162205 52 293 0.0 0.0 0.00 0.00 0.00 95 1021.3
20260506161705 52 292 0.0 1.0 0.00 0.00 0.00 95 1021.3
20260506161205 51 128 0.0 0.0 0.00 0.00 0.00 95 1021.2
20260506155705 51 128 1.0 2.0 0.00 0.00 0.00 95 1021.0
20260506155205 51 229 0.0 1.0 0.00 0.00 0.00 94 1021.0
20260506154705 51 229 0.0 2.0 0.00 0.00 0.00 94 1021.2
20260506154205 51 229 0.0 1.0 0.00 0.00 0.00 94 1021.1
20260506153705 51 216 0.0 0.0 0.00 0.00 0.00 94 1021.1
20260506153205 51 216 0.0 2.0 0.00 0.00 0.00 94 1021.1
20260506152705 51 216 0.0 1.0 0.00 0.00 0.00 94 1021.1
20260506152205 51 216 0.0 1.0 0.00 0.00 0.00 94 1021.1
20260506151706 51 216 0.0 1.0 0.00 0.00 0.00 94 1021.0
20260506151205 51 167 0.0 1.0 0.00 0.00 0.00 94 1021.1
20260506150706 51 159 0.0 1.0 0.00 0.00 0.00 93 1021.1
20260506150205 51 179 0.0 1.0 0.00 0.00 0.00 94 1021.1
20260506145705 51 192 0.0 1.0 0.00 0.00 0.00 94 1021.1
20260506145205 51 211 0.0 1.0 0.00 0.00 0.00 94 1021.0
20260506144705 51 214 0.0 1.0 0.00 0.00 0.00 94 1021.2
20260506144205 51 211 0.0 2.0 0.00 0.00 0.00 94 1021.0
20260506143705 51 173 0.0 1.0 0.00 0.00 0.00 94 1020.8
20260506142705 51 148 0.0 1.0 0.00 0.00 0.00 94 1020.5
20260506142205 51 148 0.0 0.0 0.00 0.00 0.00 94 1020.6
20260506140705 51 148 0.0 1.0 0.00 0.00 0.00 94 1020.6
20260506140205 51 148 0.0 0.0 0.00 0.00 0.00 94 1020.8
20260506135705 51 148 1.0 2.0 0.00 0.00 0.00 93 1020.5
20260506135205 51 311 0.0 1.0 0.00 0.00 0.00 93 1020.8
20260506134705 51 312 0.0 1.0 0.00 0.00 0.00 93 1020.7
20260506134205 51 317 0.0 1.0 0.00 0.00 0.00 93 1020.7
20260506133705 51 327 0.0 0.0 0.00 0.00 0.00 93 1020.7
20260506133205 51 327 0.0 1.0 0.00 0.00 0.00 93 1020.6
20260506132705 51 340 0.0 0.0 0.00 0.00 0.00 93 1020.7
20260506132206 51 340 0.0 0.0 0.00 0.00 0.00 93 1020.6
20260506131705 51 340 0.0 0.0 0.00 0.00 0.00 92 1020.6
20260506131205 51 340 0.0 0.0 0.00 0.00 0.00 92 1020.5
20260506130705 51 340 1.0 1.0 0.00 0.00 0.00 92 1020.5
20260506130205 51 355 0.0 0.0 0.00 0.00 0.00 91 1020.4
20260506125705 51 355 1.0 2.0 0.00 0.00 0.00 91 1020.3
20260506125205 52 355 0.0 1.0 0.00 0.00 0.00 91 1020.4
20260506124705 52 23 0.0 1.0 0.00 0.00 0.00 91 1020.4
20260506124205 52 23 0.0 1.0 0.00 0.00 0.00 90 1020.3
20260506123705 52 92 0.0 1.0 0.00 0.00 0.00 90 1020.3
20260506122705 52 331 0.0 1.0 0.00 0.00 0.00 90 1020.1
20260506122205 52 339 1.0 3.0 0.00 0.00 0.00 90 1020.1
20260506121705 52 329 1.0 1.0 0.00 0.00 0.00 90 1020.1
20260506120705 52 294 1.0 3.0 0.00 0.00 0.00 90 1020.0
20260506120205 52 337 0.0 0.0 0.00 0.00 0.00 90 1019.9
20260506115205 52 340 0.0 0.0 0.00 0.00 0.00 90 1019.9
20260506114206 52 319 0.0 2.0 0.00 0.00 0.00 90 1019.8
20260506112705 52 286 0.0 1.0 0.00 0.00 0.00 90 1019.8
20260506112205 52 272 0.0 0.0 0.00 0.00 0.00 90 1019.8
20260506111705 52 272 0.0 2.0 0.00 0.00 0.00 90 1019.8
20260506111205 52 336 0.0 2.0 0.00 0.00 0.00 90 1019.8
20260506110205 52 240 0.0 2.0 0.00 0.00 0.00 90 1019.8
20260506105705 52 280 1.0 2.0 0.00 0.00 0.00 90 1019.7
20260506105205 52 329 1.0 3.0 0.00 0.00 0.00 90 1019.7
20260506104705 52 27 2.0 3.0 0.00 0.00 0.00 91 1019.6
20260506104204 52 13 0.0 0.0 0.00 0.00 0.00 91 1019.6
20260506103704 52 13 0.0 3.0 0.00 0.00 0.00 91 1019.5
20260506103205 52 29 0.0 3.0 0.00 0.00 0.00 91 1019.5
20260506102705 52 10 0.0 1.0 0.00 0.00 0.00 91 1019.5
20260506102205 52 88 0.0 0.0 0.00 0.00 0.00 91 1019.4
20260506101206 52 21 0.0 1.0 0.00 0.00 0.00 90 1019.4
20260506100705 52 0 0.0 2.0 0.00 0.00 0.00 90 1019.4
20260506100205 52 331 1.0 3.0 0.00 0.00 0.00 90 1019.3
20260506095706 52 355 1.0 3.0 0.00 0.00 0.00 89 1019.3
20260506095205 52 328 1.0 3.0 0.00 0.00 0.00 89 1019.3
20260506094204 53 5 0.0 1.0 0.00 0.00 0.00 88 1019.3
20260506093705 53 66 1.0 6.0 0.00 0.00 0.00 88 1019.3
20260506093205 53 116 0.0 1.0 0.00 0.00 0.00 88 1019.3
20260506092705 53 22 1.0 3.0 0.00 0.00 0.00 88 1019.2
20260506092205 53 11 0.0 1.0 0.00 0.00 0.00 88 1019.3
20260506090704 53 101 1.0 3.0 0.00 0.00 0.00 88 1019.2
20260506090204 53 282 1.0 3.0 0.00 0.00 0.00 88 1019.1
20260506085705 53 257 1.0 2.0 0.00 0.00 0.00 87 1019.1
20260506085204 53 333 1.0 2.0 0.00 0.00 0.00 87 1019.1
20260506084205 53 271 0.0 1.0 0.00 0.00 0.00 87 1019.0
20260506083705 53 317 0.0 1.0 0.00 0.00 0.00 87 1019.1
20260506083205 53 329 1.0 3.0 0.00 0.00 0.00 87 1018.9
20260506082705 53 346 1.0 2.0 0.00 0.00 0.00 88 1018.9
20260506082205 53 63 0.0 2.0 0.00 0.00 0.00 87 1018.8
20260506081705 53 221 0.0 1.0 0.00 0.00 0.00 87 1018.8
20260506081205 53 221 0.0 0.0 0.00 0.00 0.00 88 1018.7
20260506080705 54 221 0.0 1.0 0.00 0.00 0.00 87 1018.6
20260506080204 54 188 0.0 1.0 0.00 0.00 0.00 87 1018.6
20260506073205 54 92 1.0 2.0 0.00 0.00 0.00 87 1018.3
20260506072704 54 167 0.0 1.0 0.00 0.00 0.00 87 1018.4
20260506072205 54 190 0.0 1.0 0.00 0.00 0.00 87 1018.4
20260506071705 54 190 0.0 1.0 0.00 0.00 0.00 87 1018.3
20260506071205 54 121 0.0 1.0 0.00 0.00 0.00 87 1018.2
20260506070204 54 330 0.0 2.0 0.00 0.00 0.00 87 1018.2
20260506062205 54 345 0.0 1.0 0.00 0.00 0.00 88 1018.0
20260506061705 54 28 0.0 2.0 0.00 0.00 0.00 88 1018.1
20260506061205 53 63 0.0 1.0 0.00 0.00 0.00 89 1018.1
20260506060705 53 173 0.0 1.0 0.00 0.00 0.00 89 1018.1
20260506060205 53 249 0.0 1.0 0.00 0.00 0.00 89 1018.0